Regional Weather Roundup
Issued by NWS Cleveland, OH

Home | Current Version | Previous Version | Graphics & Text | Print | Product List | Glossary On
Versions: 1 2 3 4 5 6 7 8 9 10 11 12 13 14 15 16 17 18 19 20 21 22 23 24 25 26 27 28 29 30 31 32 33 34 35 36 37 38 39 40 41 42 43 44 45 46 47 48 49 50
000
ASUS41 KCLE 291602
RWRCLE
OHIO REGIONAL WEATHER ROUNDUP
NATIONAL WEATHER SERVICE CLEVELAND, OH
1200 PM EDT FRI JUL 29 2016

NOTE: "FAIR" INDICATES FEW OR NO CLOUDS BELOW 12,000 FEET WITH NO
SIGNIFICANT WEATHER AND/OR OBSTRUCTIONS TO VISIBILITY.

OHZ001>008-015>018-024>027-034-035-043-044-291700-
   NORTHWEST OHIO

CITY           SKY/WX    TMP DP  RH WIND       PRES   REMARKS
DEFIANCE       SUNNY     84  67  56 CALM      29.95R
FINDLAY        SUNNY     84  67  56 VRB3      29.94R
TOLEDO EXPRESS SUNNY     82  66  58 VRB3      29.94S
TOLEDO EXEC    MOSUNNY   83  69  62 VRB7      29.95S
LIMA           SUNNY     84  68  58 VRB3      29.94S
$$

OHZ009>014-019>023-028>033-038-089-291700-
   NORTHEAST OHIO

CITY           SKY/WX    TMP DP  RH WIND       PRES   REMARKS
CLE-HOPKINS    PTSUNNY   83  66  56 VRB3      29.96S
CLE-LAKEFRONT  MOSUNNY   81  71  71 NW8       29.93S
CUY CO. ARPT   LGT RAIN  82  70  65 S5        29.96R
LORAIN-ELYRIA  MOSUNNY   83  67  58 NE5       29.95S
ASHTABULA      MOSUNNY   79  71  76 CALM      29.97S
AKRON-CANTON   PTSUNNY   79  68  69 NW5       29.97S
WOOSTER        MOSUNNY   78  68  71 CALM      29.97S
MANSFIELD      MOSUNNY   83  63  50 MISG      29.97R
YOUNGSTOWN     PTSUNNY   79  67  66 SW3       29.97S
$$

OHZ042-051>053-060>062-070>072-077>081-291700-
  SOUTHWEST OHIO

CITY           SKY/WX    TMP DP  RH WIND       PRES   REMARKS
CINC-COVINGTON PTSUNNY   80  72  76 S8        29.97R
CINC-LUNKEN    PTSUNNY   80  73  79 S8        29.95F
HAMILTON       MOSUNNY   85  72  65 VRB3      29.95S HX  91
DAYTON         PTSUNNY   84  69  60 SW7       29.97R
WRIGHT-PAT AFB NOT AVBL
DAYTON GENERAL PTSUNNY   82  69  64 S8        29.95R
WILMINGTON     PTSUNNY   78  72  81 S7        29.97R
$$

OHZ036-037-039>041-045>050-054>059-063>069-073>076-082>088-291700-
  CENTRAL AND SOUTHEAST OHIO

CITY           SKY/WX    TMP DP  RH WIND       PRES   REMARKS
COLUMBUS       CLOUDY    76  71  85 SE5       29.96R
OSU AIRPORT    CLOUDY    76  72  87 VRB3      29.97R
BOLTON FIELD     N/A     73  73 100 MISG        N/A  FOG
RICKENBACK AFB CLOUDY    76  72  85 SW6       29.96R
NEWARK         CLOUDY    76  70  82 VRB5      29.97R
MARION         MOSUNNY   83  67  58 VRB6      29.96S
LANCASTER      PTSUNNY   77  72  84 VRB3      29.97R
ZANESVILLE     CLOUDY    77  69  76 S5        29.97R
NEW PHILLY     PTSUNNY   81  68  64 SE5       29.97S
$$




USA.gov is the U.S. government's official web portal to all federal, state and local government web resources and services.